Location: Bletchingley
(51.2333°N, 0.1000°W)
Time: 22:53:46
(UTC+00:00)

Cosmos 1805 - Pass Details

Date: 18 September 2020
Orbit: 524 x 531 km, 82.5° (Epoch: 21 October)

Event Time Altitude Azimuth Distance (km) Brightness Sun altitude
Exits shadow 20:35:18 82° 235° (SW) 544 3.2 -22.6°
Maximum altitude 20:35:25 84° 279° (W) 542 3.2 -22.7°
Drops below altitude 10° 20:39:22 10° 9° (N) 1,795 6.2 -23.2°
Sets 20:41:32 0° 11° (N) 2,691 7.2 -23.4°
